STARLINK-2600 (48387 NORAD) Tracking and Keplerian Element Data

This shows tracking and keplerian element data for the satellite.

Feedback or suggestion? Click here.




ElementValue
Catalog48387
NameSTARLINK-2600
Epoch Orbit363
Epoch Day214.91667824
Epoch Year2021
RAAN327.4026
Inclination53.0533
Eccentricity0.0001281
Argument of Perigee74.8235
Mean Anonmoly36.6533
Mean Motion15.06409351
Decay Rate-0.00024994
L11 48387U 21038AL 21214.91667824 -.00024994 00000-0 -16645-2 0 9991
L22 48387 53.0533 327.4026 0001281 74.8235 36.6533 15.06409351 3638

Live tracking and technical data element details for STARLINK-2600 (NORAD 48387). STARLINK-2600 can be tracked NOW for your location showing map with azimuth and elevation plus other details from your city location.

Track the satellite on the map from your city or location and see movement details for azimuth, elevation, latitude, longitude, range, height, and movement on the map or in text.







IsCatalogInMostPopularTable: catalog: 48387, numindb: 34
Update: records affected: 1



GetName: 48387 STARLINK-2600

Hit Count: updated at: Tue, 03 Aug 2021 21:16:05 GMT